User: anonymous
Location: Kitchener
(43.4500°N, 80.5000°W)
Time: 00:48:21
(UTC-04:00)
Language:

Cosmos 1939 Rocket - Orbit

View from above orbital plane
View from above orbital plane
View from above satellite
View from above satellite

Ground track
Ground track

The orbit data is extracted from the following two-line orbital elements,

1 19046U 88032B   14294.24644361  .00003957  00000-0  31882-3 0   261
2 19046 097.6382 346.5113 0038690 035.7372 324.6429 14.99910369427096
Epoch (UTC): 21 October 2014 05:54:52
Eccentricity: 0.0038690
inclination: 97.6382°
perigee height: 540 km
apogee height: 594 km
right ascension of ascending node: 346.5113°
argument of perigee: 35.7372°
revolutions per day: 14.99910369
mean anomaly at epoch: 324.6429°
orbit number at epoch: 42709

The dashed part of the orbit path shows where the satellite is in the earth's shadow,  

DLR